This is the latest recevied weather packets stored in our database for station/object JH7UAX-10. If no packets are shown the sender has not sent any weather packets the latest 10 day(s).
| Time | Temp. | Humidity | Pressure | Rain* | Wind** | Luminosity | Snow |
|---|---|---|---|---|---|---|---|
| 1777951378 | 17.22° C | 62% | 1028.4 hPa | 0 mm | - | - | - |
| 1777950906 | 17.78° C | 61% | 1028.4 hPa | 0 mm | - | - | - |
| 1777950478 | 17.22° C | 61% | 1028.4 hPa | 0 mm | - | - | - |
| 1777950006 | 17.22° C | 63% | 1028.4 hPa | 0 mm | - | - | - |
| 1777949578 | 17.22° C | 62% | 1028.4 hPa | 0 mm | - | - | - |
| 1777949106 | 17.22° C | 55% | 1028.4 hPa | 0 mm | - | - | - |
| 1777948678 | 17.22° C | 57% | 1028.3 hPa | 0 mm | - | - | - |
| 1777947778 | 16.67° C | 59% | 1028.4 hPa | 0 mm | - | - | - |
| 1777947305 | 16.67° C | 58% | 1028.6 hPa | 0 mm | - | - | - |
| 1777946879 | 16.67° C | 62% | 1028.7 hPa | 0 mm | - | - | - |
| 1777946405 | 16.11° C | 62% | 1028.8 hPa | 0 mm | - | - | - |
| 1777945979 | 15.56° C | 65% | 1028.9 hPa | 0 mm | - | - | - |
| 1777945505 | 15.56° C | 67% | 1028.9 hPa | 0 mm | - | - | - |
| 1777945079 | 15.56° C | 69% | 1029 hPa | 0 mm | - | - | - |
| 1777944604 | 15° C | 70% | 1029 hPa | 0 mm | - | - | - |
| 1777944179 | 15° C | 71% | 1029 hPa | 0 mm | - | - | - |
| 1777943704 | 14.44° C | 72% | 1029.1 hPa | 0 mm | - | - | - |
| 1777943279 | 14.44° C | 72% | 1029.2 hPa | 0 mm | - | - | - |
| 1777942378 | 13.89° C | 73% | 1029.4 hPa | 0 mm | - | - | - |
| 1777941478 | 13.33° C | 75% | 1029.5 hPa | 0 mm | - | - | - |
| 1777941006 | 13.33° C | 75% | 1029.5 hPa | 0 mm | - | - | - |
| 1777940578 | 12.78° C | 75% | 1029.6 hPa | 0 mm | - | - | - |
| 1777939679 | 11.67° C | 76% | 1029.6 hPa | 0 mm | - | - | - |
| 1777939205 | 11.67° C | 76% | 1029.6 hPa | 0 mm | - | - | - |
| 1777938779 | 11.67° C | 76% | 1029.7 hPa | 0 mm | - | - | - |
* Rain latest hour (hover to see other rain measurements)
** Current wind speed in m/s (hover to see current wind gust speed)